Skip Page Navigation
NASA JPL Caltech
NASA Logo - Jet Propulsion Laboratory + View the NASA Portal
+ Near-Earth Object (NEO) Program
Search JPL
JPL Home Earth Solar System Stars & Galaxies Technology
JPL Solar System Dynamics
BODIES ORBITS EPHEMERIDES TOOLS PHYSICAL DATA DISCOVERY FAQ SITE MAP
JPL Small-Body Database Browser
Search: [ help ]  
13319 Michaelmi (1998 RD79)
Classification: Main-belt Asteroid          SPK-ID: 2013319
Ephemeris | Orbit Diagram | Orbital Elements | Physical Parameters | Discovery Circumstances | Close-Approach Data ]

[ show orbit diagram ]
Orbital Elements at Epoch 2457000.5 (2014-Dec-09.0) TDB
Reference: JPL 9 (heliocentric ecliptic J2000)
 Element Value Uncertainty (1-sigma)   Units 
e .1324197663513803 5.1866e-08  
a 2.214244206772948 1.384e-08 AU
q 1.921034506267177 1.1276e-07 AU
i 6.176054716099671 5.6774e-06 deg
node 52.72467754400272 5.5788e-05 deg
peri 187.0089463557609 6.1354e-05 deg
M 85.3769217739224 2.4682e-05 deg
tp 2456715.086379807319
(2014-Feb-26.58637981)
8.2777e-05 JED
period 1203.473973229484
3.29
1.1283e-05
3.089e-08
d
yr
n .2991340137036377 2.8045e-09 deg/d
Q 2.507453907278719 1.5672e-08 AU
  Orbit Determination Parameters
   # obs. used (total)      779  
   data-arc span      13697 days (37.50 yr)  
   first obs. used      1977-02-12  
   last obs. used      2014-08-14  
   planetary ephem.      DE431  
   SB-pert. ephem.      SB431-BIG16  
   condition code      0  
   fit RMS      .57627  
   data source      ORB  
   producer      Otto Matic  
   solution date      2014-Sep-12 14:01:35  

Additional Information
 Earth MOID = .91055 AU 
 T_jup = 3.636 
[ show covariance matrix ]

Ephemeris | Orbit Diagram | Orbital Elements | Physical Parameters | Discovery Circumstances | Close-Approach Data ]

Physical Parameter Table
Parameter Symbol Value Units Sigma Reference Notes
absolute magnitude H 14.6 mag n/a MPO263468  

13319 Michaelmi           Discovered 1998 Sept. 14 by the Lincoln Laboratory Near-Earth Asteroid Research Team at Socorro.
Michael Mi (b. 1988) is a finalist in the 2002 Discovery Channel Young Scientist Challenge (DCYSC), a middle school science competition, for his biochemistry, medicine, health, and microbiology project. He attends the Andrew W. Mellon Middle School, Pittsburgh, Pennsylvania.
NOTE: some special characters may not display properly (any characters within {} are an attempt to place the proper accent above a character)
Reference: 20021021/MPCPages.arcLast Updated: 2003-10-02

[ show close-approach data ]
Alternate Designations
 1998 RD79 = 1977 CA3 = 1991 OD 
Ephemeris | Orbit Diagram | Orbital Elements | Physical Parameters | Discovery Circumstances | Close-Approach Data ]
ABOUT SSD CREDITS/AWARDS PRIVACY/COPYRIGHT GLOSSARY LINKS
FirstGov 2014-Oct-01 08:14 UT
(server date/time)  
NASA Home Page
Site Manager:   Donald K. Yeomans
Webmaster  Alan B. Chamberlin